Regional Weather Roundup
Issued by NWS Charleston, WV

Home | Current Version | Previous Version | Text Only | Print | Product List | Glossary Off
Versions: 1 2 3 4 5 6 7 8 9 10 11 12 13 14 15 16 17 18 19 20 21 22 23 24 25 26 27 28 29 30 31 32 33 34 35 36 37 38 39 40 41 42 43 44 45 46 47 48 49 50

093
ASUS41 KRLX 061110
RWRRLX
West Virginia Regional Weather Roundup
National Weather Service Charleston WV
600 AM EST TUE DEC 06 2016

Note: "fair" indicates few or no clouds below 12,000 feet with no
significant weather and/or obstructions to visibility.

WVZ003-061200-
Northern Panhandle of West Virginia

CITY           SKY/WX    TMP DP  RH WIND       PRES   REMARKS
WHEELING       PTCLDY    34  27  75 E12       29.89F
$$

WVZ009-061200-
Northwest West Virginia

CITY           SKY/WX    TMP DP  RH WIND       PRES   REMARKS
PARKERSBURG    LGT RAIN  40  31  70 E8        29.86F
$$

WVZ006-061200-
Western West Virginia

CITY           SKY/WX    TMP DP  RH WIND       PRES   REMARKS
HUNTINGTON     RAIN      42  38  85 E7        29.76F
$$

WVZ015-061200-
West Central West Virginia

CITY           SKY/WX    TMP DP  RH WIND       PRES   REMARKS
CHARLESTON     LGT RAIN  48  40  73 SE7       29.81S
$$

WVZ022-031-061200-
North Central West Virginia

CITY           SKY/WX    TMP DP  RH WIND       PRES   REMARKS
CLARKSBURG     CLOUDY    41  32  70 NE5       29.87F
MORGANTOWN     CLOUDY    44  29  55 E6        29.90F
$$

WVZ025-035-042-045-061200-
Southern West Virginia

CITY           SKY/WX    TMP DP  RH WIND       PRES   REMARKS
BECKLEY        LGT RAIN  41  33  73 SE14G31   29.87S
LOGAN          CLOUDY    48  41  76 VRB5G26   29.79F
BLUEFIELD      LGT RAIN  39  35  86 SE15G28   29.88S
LEWISBURG      LGT RAIN  40  35  83 E7        29.94S
$$

WVZ047-061200-
Northern Mountains of West Virginia

CITY           SKY/WX    TMP DP  RH WIND       PRES   REMARKS
ELKINS         CLOUDY    45  34  65 SE9       29.89F
$$

WVZ052-061200-
Eastern Panhandle of West Virginia

CITY           SKY/WX    TMP DP  RH WIND       PRES   REMARKS
MARTINSBURG    CLOUDY    35  31  85 CALM      30.09S
PETERSBURG     CLOUDY    38  32  78 CALM      30.05F
$$




USA.gov is the U.S. government's official web portal to all federal, state and local government web resources and services.